Flag for Greece Weather past 2 weeks in Corfu, Greece

Now
73 °F

Clear.


Feels Like: 70 °F
Forecast: 71 / 90 °F
Wind: No wind

Location: Kerkyra Airport

Current Time: Sep 3, 2015 at 5:58:54 AM

Latest Report: Sep 3, 2015 at 5:20 AM


Visibility: 10 mi

Pressure: 29.89 "Hg

Humidity: 94%

Dew point: 72 °F

Location of CorfuLocation

Historic Weather in Corfu — Graph

°F

Corfu temperature yesterday

Maximum temperature yesterday: 91 °F (at 4:50 PM)
Minimum temperature yesterday: 70 °F (at 6:50 AM)
Average temperature yesterday: 80 °F

Past Weeks' High & Low Weather Summary

 TemperatureHumidityPressure
High97 °F (Aug 30, 3:50 PM)94% (Aug 19, 4:50 AM)30.09 "Hg (Aug 19, 4:50 AM)
Low68 °F (Aug 19, 7:20 AM)27% (Aug 30, 3:50 PM)29.83 "Hg (Sep 2, 4:50 PM)
Average81 °F65%29.96 "Hg
* Reported Aug 19 4:20 AM — Sep 3 4:20 AM, Corfu, Weather by CustomWeather, © 2015

Note: Actual official high and low records may vary slightly from our data, if they occured in-between our weather recording intervals... More about our weather records

Advertising

Corfu weather history for previous 24 hours

 ConditionsComfort  
Time TempWeatherWind HumidityBarometerVisibility
4:20 AM
Thu, Sep 3
73 °FClear.No wind94%29.89 "Hg10 mi
3:50 AM73 °FClear.No wind94%29.89 "Hg10 mi
3:20 AM73 °FClear.No wind94%29.89 "Hg10 mi
2:50 AM73 °FClear.No wind94%29.89 "Hg10 mi
2:20 AM75 °FClear.No wind89%29.89 "Hg10 mi
1:50 AM75 °FClear.No wind89%29.89 "Hg10 mi
12:50 AM75 °FPassing clouds.No wind89%29.89 "HgN/A
12:20 AM77 °FPassing clouds.3 mph83%29.89 "HgN/A
11:50 PM
Wed, Sep 2
77 °FPassing clouds.2 mph83%29.89 "HgN/A
11:20 PM79 °FClear.2 mph84%29.89 "Hg10 mi
10:50 PM79 °FClear.No wind84%29.89 "Hg10 mi
10:20 PM81 °FClear.2 mph74%29.86 "Hg10 mi
9:50 PM81 °FClear.3 mph74%29.86 "Hg10 mi
9:20 PM82 °FClear.2 mph70%29.86 "Hg10 mi
8:50 PM82 °FSunny.3 mph70%29.86 "Hg10 mi
8:20 PM84 °FPassing clouds.5 mph62%29.86 "HgN/A
7:50 PM84 °FPassing clouds.5 mph62%29.86 "HgN/A
7:20 PM84 °FPassing clouds.8 mph62%29.83 "HgN/A
6:20 PM90 °FPassing clouds.9 mph52%29.83 "HgN/A
5:50 PM90 °FPassing clouds.10 mph52%29.83 "HgN/A
5:20 PM91 °FPassing clouds.10 mph46%29.83 "HgN/A
4:50 PM91 °FPassing clouds.10 mph46%29.83 "HgN/A
4:20 PM90 °FPassing clouds.10 mph46%29.86 "HgN/A
3:50 PM90 °FPassing clouds.10 mph46%29.86 "HgN/A
3:20 PM88 °FPassing clouds.9 mph62%29.86 "HgN/A
2:50 PM88 °FPassing clouds.6 mph62%29.86 "HgN/A
2:20 PM88 °FPassing clouds.8 mph66%29.86 "HgN/A
1:50 PM88 °FPassing clouds.9 mph66%29.86 "HgN/A
1:20 PM86 °FPassing clouds.9 mph70%29.89 "HgN/A
12:50 PM86 °FPassing clouds.9 mph70%29.89 "HgN/A
12:20 PM84 °FPassing clouds.8 mph70%29.89 "HgN/A
11:50 AM84 °FPassing clouds.7 mph70%29.89 "HgN/A
11:20 AM82 °FPassing clouds.6 mph74%29.86 "HgN/A
10:50 AM82 °FPassing clouds.5 mph74%29.86 "HgN/A
10:20 AM82 °FPassing clouds.5 mph70%29.86 "HgN/A
9:50 AM81 °FPassing clouds.No wind74%29.86 "HgN/A
9:20 AM77 °FPassing clouds.No wind74%29.86 "HgN/A
8:50 AM73 °FPassing clouds.No wind83%29.86 "HgN/A
8:20 AM72 °FSunny.3 mph83%29.86 "Hg10 mi
7:50 AM70 °FClear.3 mph88%29.86 "Hg10 mi
7:20 AM70 °FClear.No wind94%29.86 "Hg10 mi
6:50 AM70 °FClear.No wind94%29.86 "Hg10 mi
5:50 AM72 °FClear.3 mph88%29.86 "Hg10 mi
5:20 AM72 °FClear.3 mph88%29.86 "Hg10 mi
Weather by CustomWeather, © 2015

See weather overviewHow to use our weather pages